ZSHLZ FAPE-FAPE

Flight info

Callsign ZSHLZ
Flight time 0h 20m
Altitude 1000
Route FAPE DCT SEAVIEW DCT MAITLANDS DCT SEAVIEW DCT FAPE
Aircraft UH1/L-VGD/C

Departure

Time 2026-04-30 11:34
Airport Chief Dawid Stuurman International Airport (FAPE)

Arrival

Time 2026-04-30 11:54
Airport Chief Dawid Stuurman International Airport (FAPE)
Time Latitude Longitude Altitude Speed Heading
2026-04-30 11:21 -33.98002 25.62155 191 ft 0 kts 349°
2026-04-30 11:27 -33.98001 25.62156 194 ft 2 kts 352°
2026-04-30 11:28 -33.97512 25.63000 307 ft 109 kts 68°
2026-04-30 11:28 -33.97376 25.63924 242 ft 118 kts 111°
2026-04-30 11:28 -33.97956 25.64585 345 ft 113 kts 138°
2026-04-30 11:29 -33.98659 25.64991 368 ft 115 kts 178°
2026-04-30 11:29 -33.99474 25.64927 384 ft 118 kts 180°
2026-04-30 11:29 -34.01111 25.64738 437 ft 116 kts 187°
2026-04-30 11:30 -34.02419 25.63614 399 ft 119 kts 226°
2026-04-30 11:30 -34.03012 25.62867 297 ft 123 kts 220°
2026-04-30 11:30 -34.03627 25.62205 417 ft 113 kts 223°
2026-04-30 11:31 -34.04190 25.61510 336 ft 125 kts 214°
2026-04-30 11:31 -34.04502 25.60649 327 ft 121 kts 263°
2026-04-30 11:31 -34.04622 25.59628 283 ft 121 kts 257°
2026-04-30 11:31 -34.04852 25.58668 266 ft 119 kts 258°
2026-04-30 11:32 -34.04694 25.57700 258 ft 121 kts 303°
2026-04-30 11:32 -34.04425 25.56773 241 ft 120 kts 278°
2026-04-30 11:32 -34.04240 25.55842 402 ft 110 kts 281°
2026-04-30 11:33 -34.04079 25.53921 348 ft 121 kts 280°
2026-04-30 11:33 -34.03859 25.52931 317 ft 120 kts 285°
2026-04-30 11:33 -34.03672 25.51982 417 ft 116 kts 275°
2026-04-30 11:33 -34.03508 25.51078 624 ft 107 kts 285°
2026-04-30 11:34 -34.03368 25.50189 754 ft 109 kts 272°
2026-04-30 11:34 -34.03229 25.49286 872 ft 112 kts 286°
2026-04-30 11:34 -34.02996 25.48342 830 ft 119 kts 282°
2026-04-30 11:34 -34.02846 25.47366 852 ft 119 kts 275°
2026-04-30 11:35 -34.02761 25.46372 827 ft 119 kts 271°
2026-04-30 11:35 -34.02703 25.45360 749 ft 122 kts 270°
2026-04-30 11:35 -34.02734 25.44357 758 ft 118 kts 263°
2026-04-30 11:35 -34.02733 25.43363 755 ft 118 kts 273°
2026-04-30 11:36 -34.02602 25.42415 817 ft 115 kts 275°
2026-04-30 11:36 -34.02519 25.41447 831 ft 115 kts 275°
2026-04-30 11:36 -34.02354 25.40474 760 ft 120 kts 282°
2026-04-30 11:36 -34.02290 25.39469 624 ft 128 kts 269°
2026-04-30 11:37 -34.02235 25.38381 343 ft 135 kts 274°
2026-04-30 11:37 -34.02048 25.37339 323 ft 99 kts 276°
2026-04-30 11:37 -34.01929 25.36717 262 ft 53 kts 282°
2026-04-30 11:37 -34.01766 25.36198 253 ft 76 kts 284°
2026-04-30 11:38 -34.01480 25.35698 279 ft 76 kts 319°
2026-04-30 11:38 -34.01077 25.35252 307 ft 89 kts 311°
2026-04-30 11:38 -34.01156 25.34896 144 ft 42 kts 105°
2026-04-30 11:38 -34.01233 25.35016 55 ft 9 kts 104°
2026-04-30 11:39 -34.01242 25.35034 39 ft 0 kts 107°
2026-04-30 11:40 -34.01243 25.35035 145 ft 7 kts 97°
2026-04-30 11:41 -34.01053 25.34586 114 ft 100 kts 290°
2026-04-30 11:41 -34.00704 25.33772 127 ft 116 kts 300°
2026-04-30 11:41 -34.00313 25.32907 143 ft 119 kts 289°
2026-04-30 11:41 -33.99911 25.32020 118 ft 119 kts 298°
2026-04-30 11:42 -33.99534 25.31117 87 ft 124 kts 300°
2026-04-30 11:42 -33.99179 25.30171 58 ft 123 kts 283°
2026-04-30 11:42 -33.98695 25.29352 67 ft 123 kts 324°
2026-04-30 11:42 -33.98584 25.29263 151 ft 70 kts 42°
2026-04-30 11:43 -33.98350 25.29214 184 ft 9 kts 226°
2026-04-30 11:43 -33.98349 25.29205 163 ft 0 kts 230°
2026-04-30 11:44 -33.98331 25.29239 248 ft 21 kts 168°
2026-04-30 11:44 -33.98833 25.29400 92 ft 107 kts 137°
2026-04-30 11:44 -33.99202 25.30247 50 ft 121 kts 105°
2026-04-30 11:44 -33.99601 25.31128 85 ft 121 kts 120°
2026-04-30 11:45 -33.99960 25.32029 94 ft 120 kts 119°
2026-04-30 11:45 -34.00366 25.32915 102 ft 120 kts 112°
2026-04-30 11:45 -34.00786 25.33795 110 ft 121 kts 119°
2026-04-30 11:45 -34.01160 25.34708 84 ft 124 kts 110°
2026-04-30 11:46 -34.01406 25.35656 117 ft 122 kts 114°
2026-04-30 11:46 -34.01710 25.36602 87 ft 124 kts 95°
2026-04-30 11:46 -34.01639 25.37607 135 ft 121 kts 66°
2026-04-30 11:46 -34.01520 25.38587 168 ft 119 kts 84°
2026-04-30 11:47 -34.01489 25.39573 239 ft 118 kts 86°
2026-04-30 11:47 -34.01664 25.40552 235 ft 123 kts 100°
2026-04-30 11:47 -34.01840 25.41548 218 ft 124 kts 97°
2026-04-30 11:47 -34.01960 25.42564 239 ft 121 kts 95°
2026-04-30 11:48 -34.02078 25.43585 211 ft 122 kts 96°
2026-04-30 11:48 -34.02321 25.44536 296 ft 117 kts 116°
2026-04-30 11:48 -34.02596 25.45422 420 ft 116 kts 111°
2026-04-30 11:48 -34.02898 25.46423 97 ft 133 kts 93°
2026-04-30 11:49 -34.03052 25.47460 108 ft 125 kts 110°
2026-04-30 11:49 -34.03281 25.48437 201 ft 117 kts 89°
2026-04-30 11:49 -34.03156 25.49391 277 ft 117 kts 66°
2026-04-30 11:49 -34.03010 25.50363 259 ft 123 kts 91°
2026-04-30 11:50 -34.03131 25.51360 317 ft 120 kts 99°
2026-04-30 11:50 -34.03306 25.52340 319 ft 121 kts 98°
2026-04-30 11:50 -34.03451 25.53321 432 ft 115 kts 95°
2026-04-30 11:50 -34.03575 25.54251 612 ft 112 kts 94°
2026-04-30 11:51 -34.03226 25.55031 606 ft 121 kts 23°
2026-04-30 11:51 -34.02448 25.55432 600 ft 123 kts 16°
2026-04-30 11:51 -34.01571 25.55479 451 ft 126 kts
2026-04-30 11:51 -34.00867 25.55985 475 ft 121 kts 49°
2026-04-30 11:52 -34.00480 25.55876 644 ft 85 kts 330°
2026-04-30 11:52 -33.99777 25.56150 560 ft 116 kts 27°
2026-04-30 11:52 -33.99311 25.56854 661 ft 114 kts 83°
2026-04-30 11:52 -33.99413 25.57835 636 ft 120 kts 96°
2026-04-30 11:53 -33.99437 25.58725 575 ft 99 kts 83°
2026-04-30 11:53 -33.99319 25.59484 403 ft 82 kts 66°
2026-04-30 11:53 -33.99159 25.60024 273 ft 60 kts 56°
2026-04-30 11:53 -33.98940 25.60441 248 ft 59 kts 52°
2026-04-30 11:54 -33.98730 25.60832 249 ft 54 kts 53°
2026-04-30 11:54 -33.98532 25.61208 249 ft 52 kts 53°
2026-04-30 11:54 -33.98358 25.61588 249 ft 51 kts 54°
2026-04-30 11:54 -33.98194 25.61887 251 ft 36 kts 54°
2026-04-30 11:55 -33.98129 25.62151 255 ft 33 kts 22°
2026-04-30 11:55 -33.97988 25.62151 225 ft 10 kts 360°
2026-04-30 11:55 -33.97953 25.62149 194 ft 1 kts
2026-04-30 11:55 -33.97952 25.62149 191 ft 0 kts